| time (UTC) | temp F | wind direction | speed MPH | gust MPH | rain 1hr in | rain 24hr in | rain mn in | humidity % | barometer mb |
| 20260507162202 | 67 | 90 | 4.0 | 5.0 | 0.00 | 0.00 | 0.00 | 68 | 1008.8 |
| 20260507161202 | 67 | 180 | 4.0 | 7.0 | 0.00 | 0.00 | 0.00 | 67 | 1008.8 |
| 20260507160202 | 67 | 90 | 5.0 | 5.0 | 0.00 | 0.00 | 0.00 | 66 | 1008.8 |
| 20260507155201 | 68 | 180 | 5.0 | 6.0 | 0.00 | 0.00 | 0.00 | 64 | 1008.8 |
| 20260507154200 | 68 | 90 | 3.0 | 9.0 | 0.00 | 0.00 | 0.00 | 64 | 1008.8 |
| 20260507153200 | 68 | 180 | 4.0 | 4.0 | 0.00 | 0.00 | 0.00 | 64 | 1008.8 |
| 20260507152202 | 68 | 225 | 4.0 | 7.0 | 0.00 | 0.00 | 0.00 | 63 | 1008.8 |
| 20260507151202 | 68 | 180 | 5.0 | 8.0 | 0.00 | 0.00 | 0.00 | 62 | 1008.8 |
| 20260507130220 | 69 | 90 | 3.0 | 5.0 | 0.00 | 0.00 | 0.00 | 62 | 1009.8 |
| 20260507125200 | 69 | 180 | 4.0 | 7.0 | 0.00 | 0.00 | 0.00 | 62 | 1009.8 |
| 20260507124220 | 68 | 180 | 5.0 | 8.0 | 0.00 | 0.00 | 0.00 | 61 | 1009.8 |
| 20260507123200 | 69 | 225 | 7.0 | 7.0 | 0.00 | 0.00 | 0.00 | 60 | 1009.8 |
| 20260507122220 | 68 | 225 | 3.0 | 8.0 | 0.00 | 0.00 | 0.00 | 60 | 1009.8 |
| 20260507121200 | 68 | 180 | 4.0 | 8.0 | 0.00 | 0.00 | 0.00 | 63 | 1009.8 |
| 20260507100159 | 67 | 180 | 4.0 | 4.0 | 0.00 | 0.00 | 0.00 | 65 | 1010.8 |
| 20260507095159 | 67 | 180 | 5.0 | 7.0 | 0.00 | 0.00 | 0.00 | 66 | 1010.8 |
| 20260507094159 | 66 | 180 | 3.0 | 7.0 | 0.00 | 0.00 | 0.00 | 68 | 1010.8 |
| 20260507093159 | 66 | 180 | 4.0 | 7.0 | 0.00 | 0.00 | 0.00 | 70 | 1010.8 |
| 20260506191201 | 64 | 180 | 3.0 | 7.0 | 0.00 | 0.00 | 0.00 | 87 | 1008.8 |
| 20260506190201 | 65 | 180 | 5.0 | 5.0 | 0.00 | 0.00 | 0.00 | 85 | 1008.8 |